Regional Weather Roundup
Issued by NWS

Home | Current Version | Previous Version | Text Only | Print | Product List | Glossary Off
Versions: 1 2 3 4 5 6 7 8 9 10 11 12 13 14 15 16 17 18 19 20 21 22 23 24 25 26 27 28 29 30 31 32 33 34 35 36 37 38 39 40 41 42 43 44 45 46 47 48 49 50

000
ASUS43 KFSD 220902
RWRSD

WEATHER ROUNDUP FOR SOUTH DAKOTA
NATIONAL WEATHER SERVICE SIOUX FALLS SD
400 AM CDT WED MAR 22 2017

NOTE: "FAIR" INDICATES FEW OR NO CLOUDS BELOW 12,000 FEET WITH NO
SIGNIFICANT WEATHER AND/OR OBSTRUCTIONS TO VISIBILITY.


SDZ001>005-009-010-012>017-221000-
NORTHWEST AND NORTH CENTRAL SOUTH DAKOTA

CITY           SKY/WX    TMP DP  RH WIND       PRES   REMARKS
BUFFALO          N/A     28  25  88 SE33      29.95F WCI  11
FAITH            N/A     25  24  96 SE23      30.15F WCI  10
MOBRIDGE       CLOUDY    27  17  66 SE20G25   30.27F WCI  13
$$

SDZ012>016-024>037-041>051-057-063-072>074-221000-
SOUTHWEST AND SOUTH CENTRAL SOUTH DAKOTA

CITY           SKY/WX    TMP DP  RH WIND       PRES   REMARKS
RAPID CTY ARPT CLOUDY    31  30  96 S18       30.08F WCI  19
PIERRE         CLOUDY    27  25  92 SE17      30.29F WCI  14
CUSTER         CLOUDY    30  27  88 VRB5      30.05F WCI  25
ELLSWORTH AFB  CLOUDY    32  32 100 S5        30.05  WCI  27
PHILIP         MOCLDY    30  26  85 SE14      30.21F WCI  19
PINE RIDGE     CLOUDY    38  34  85 VRB7      30.11F
SPEARFISH      FAIR      30  30 100 CALM      29.95F
WINNER         CLOUDY    32  27  81 SE16      30.31F WCI  21
$$

SDZ004>011-016>023-039-040-221000-
NORTHEAST SOUTH DAKOTA

CITY           SKY/WX    TMP DP  RH WIND       PRES   REMARKS
ABERDEEN       CLOUDY    22  15  75 SE6       30.44F WCI  14
WATERTOWN      CLOUDY    21  13  71 SE9       30.42F WCI  11
BROOKINGS      CLOUDY    23  15  71 SE12      30.44S WCI  12
SISSETON         N/A     17  14  88 S5        30.47F WCI  10
$$

SDZ017-020-022-023-036>040-048>070-221000-
SOUTHEAST SOUTH DAKOTA

CITY           SKY/WX    TMP DP  RH WIND       PRES   REMARKS
SIOUX FALLS    MOCLDY    26  20  77 E7        30.45S WCI  18
HURON          CLOUDY    27  18  69 SE10      30.42F WCI  17
CHAMBERLAIN    CLOUDY    31  24  75 E16       30.36F WCI  20
MITCHELL       CLOUDY    28  19  69 SE13      30.44F WCI  17
YANKTON        CLOUDY    28  19  69 E6        30.44F WCI  22
$$

ABBREVIATIONS USED IN REMARKS
   TC - TEMPERATURE IN CELSIUS
  WCI - WIND CHILL INDEX
   HX - HEAT INDEX
  VSB - VISIBILITY





USA.gov is the U.S. government's official web portal to all federal, state and local government web resources and services.